"FRM_AIS_EDR_1995.DAT           ",2005-08-04T08:33:17.88 ,"1/0071224392.47528",    0,    0,  158446,"AIS","B1","B1","B1","B1","PISd",0,0,0,1,"B1", 0,15,   0, 0,    0,"AIS","N/A    ","OK ","OK ",    001177.851,    -053.520,    -066.119,    0015.803,    0050.833
"FRM_AIS_EDR_1995.DAT           ",2005-08-04T08:33:25.43 ,"1/0071224400.17591",    0,    1,  158446,"AIS","B1","B1","B1","B1","PISd",0,0,0,1,"B1", 0,15,   0, 0,    0,"AIS","N/A    ","OK ","OK ",    001167.472,    -053.194,    -066.094,    0015.807,    0050.803
"FRM_AIS_EDR_1995.DAT           ",2005-08-04T08:33:32.97 ,"1/0071224407.53190",    0,    2,  158446,"AIS","B1","B1","B1","B1","PISd",0,0,0,1,"B1", 0,15,   0, 0,    0,"AIS","N/A    ","OK ","OK ",    001157.124,    -052.866,    -066.071,    0015.810,    0050.774
"FRM_AIS_EDR_1995.DAT           ",2005-08-04T08:33:40.51 ,"1/0071224415.23254",    0,    3,  158446,"AIS","B1","B1","B1","B1","PISd",0,0,0,1,"B1", 0,15,   0, 0,    0,"AIS","N/A    ","OK ","OK ",    001146.807,    -052.536,    -066.048,    0015.814,    0050.747
"FRM_AIS_EDR_1995.DAT           ",2005-08-04T08:33:48.06 ,"1/0071224422.58853",    0,    4,  158446,"AIS","B1","B1","B1","B1","PISd",0,0,0,1,"B1", 0,15,   0, 0,    0,"AIS","N/A    ","OK ","OK ",    001136.523,    -052.206,    -066.025,    0015.817,    0050.721
"FRM_AIS_EDR_1995.DAT           ",2005-08-04T08:33:55.60 ,"1/0071224430.28916",    0,    5,  158446,"AIS","B1","B1","B1","B1","PISd",0,0,0,1,"B1", 0,15,   0, 0,    0,"AIS","N/A    ","OK ","OK ",    001126.273,    -051.873,    -066.003,    0015.821,    0050.697
"FRM_AIS_EDR_1995.DAT           ",2005-08-04T08:34:03.14 ,"1/0071224437.64516",    0,    6,  158446,"AIS","B1","B1","B1","B1","PISd",0,0,0,1,"B1", 0,15,   0, 0,    0,"AIS","N/A    ","OK ","OK ",    001116.055,    -051.539,    -065.982,    0015.824,    0050.674
"FRM_AIS_EDR_1995.DAT           ",2005-08-04T08:34:10.69 ,"1/0071224445.34579",    0,    7,  158446,"AIS","B1","B1","B1","B1","PISd",0,0,0,1,"B1", 0,15,   0, 0,    0,"AIS","N/A    ","OK ","OK ",    001105.872,    -051.204,    -065.961,    0015.828,    0050.653
"FRM_AIS_EDR_1995.DAT           ",2005-08-04T08:34:18.23 ,"1/0071224453.04642",    0,    8,  158446,"AIS","B1","B1","B1","B1","PISd",0,0,0,1,"B1", 0,15,   0, 0,    0,"AIS","N/A    ","OK ","OK ",    001095.723,    -050.867,    -065.941,    0015.831,    0050.633
"FRM_AIS_EDR_1995.DAT           ",2005-08-04T08:34:25.77 ,"1/0071224460.40242",    0,    9,  158446,"AIS","B1","B1","B1","B1","PISd",0,0,0,1,"B1", 0,15,   0, 0,    0,"AIS","N/A    ","OK ","OK ",    001085.609,    -050.528,    -065.921,    0015.834,    0050.615
"FRM_AIS_EDR_1995.DAT           ",2005-08-04T08:34:33.32 ,"1/0071224468.10305",    0,   10,  158446,"AIS","B1","B1","B1","B1","PISd",0,0,0,1,"B1", 0,15,   0, 0,    0,"AIS","N/A    ","OK ","OK ",    001075.530,    -050.188,    -065.901,    0015.838,    0050.598
"FRM_AIS_EDR_1995.DAT           ",2005-08-04T08:34:40.86 ,"1/0071224475.45904",    0,   11,  158446,"AIS","B1","B1","B1","B1","PISd",0,0,0,1,"B1", 0,15,   0, 0,    0,"AIS","N/A    ","OK ","OK ",    001065.488,    -049.847,    -065.883,    0015.841,    0050.583
"FRM_AIS_EDR_1995.DAT           ",2005-08-04T08:34:48.40 ,"1/0071224483.15968",    0,   12,  158446,"AIS","B1","B1","B1","B1","PISd",0,0,0,1,"B1", 0,15,   0, 0,    0,"AIS","N/A    ","OK ","OK ",    001055.482,    -049.504,    -065.864,    0015.844,    0050.570
"FRM_AIS_EDR_1995.DAT           ",2005-08-04T08:34:55.95 ,"1/0071224490.51567",    0,   13,  158446,"AIS","B1","B1","B1","B1","PISd",0,0,0,1,"B1", 0,15,   0, 0,    0,"AIS","N/A    ","OK ","OK ",    001045.513,    -049.159,    -065.846,    0015.848,    0050.558
"FRM_AIS_EDR_1995.DAT           ",2005-08-04T08:35:03.49 ,"1/0071224498.21630",    0,   14,  158446,"AIS","B1","B1","B1","B1","PISd",0,0,0,1,"B1", 0,15,   0, 0,    0,"AIS","N/A    ","OK ","OK ",    001035.582,    -048.813,    -065.829,    0015.851,    0050.548
"FRM_AIS_EDR_1995.DAT           ",2005-08-04T08:35:11.03 ,"1/0071224505.57230",    0,   15,  158446,"AIS","B1","B1","B1","B1","PISd",0,0,0,1,"B1", 0,15,   0, 0,    0,"AIS","N/A    ","OK ","OK ",    001025.689,    -048.465,    -065.812,    0015.854,    0050.539
"FRM_AIS_EDR_1995.DAT           ",2005-08-04T08:35:18.58 ,"1/0071224513.27293",    0,   16,  158446,"AIS","B1","B1","B1","B1","PISd",0,0,0,1,"B1", 0,15,   0, 0,    0,"AIS","N/A    ","OK ","OK ",    001015.835,    -048.115,    -065.795,    0015.857,    0050.533
"FRM_AIS_EDR_1995.DAT           ",2005-08-04T08:35:26.12 ,"1/0071224520.62892",    0,   17,  158446,"AIS","B1","B1","B1","B1","PISd",0,0,0,1,"B1", 0,15,   0, 0,    0,"AIS","N/A    ","OK ","OK ",    001006.020,    -047.765,    -065.779,    0015.860,    0050.528
"FRM_AIS_EDR_1995.DAT           ",2005-08-04T08:35:33.66 ,"1/0071224528.32956",    0,   18,  158446,"AIS","B1","B1","B1","B1","PISd",0,0,0,1,"B1", 0,15,   0, 0,    0,"AIS","N/A    ","OK ","OK ",    000996.245,    -047.412,    -065.763,    0015.863,    0050.525
"FRM_AIS_EDR_1995.DAT           ",2005-08-04T08:35:41.21 ,"1/0071224536.03019",    0,   19,  158446,"AIS","B1","B1","B1","B1","PISd",0,0,0,1,"B1", 0,15,   0, 0,    0,"AIS","N/A    ","OK ","OK ",    000986.510,    -047.058,    -065.748,    0015.866,    0050.523
"FRM_AIS_EDR_1995.DAT           ",2005-08-04T08:35:48.75 ,"1/0071224543.38618",    0,   20,  158446,"AIS","B1","B1","B1","B1","PISd",0,0,0,1,"B1", 0,15,   0, 0,    0,"AIS","N/A    ","OK ","OK ",    000976.817,    -046.702,    -065.733,    0015.869,    0050.524
"FRM_AIS_EDR_1995.DAT           ",2005-08-04T08:35:56.29 ,"1/0071224551.08682",    0,   21,  158446,"AIS","B1","B1","B1","B1","PISd",0,0,0,1,"B1", 0,15,   0, 0,    0,"AIS","N/A    ","OK ","OK ",    000967.164,    -046.345,    -065.719,    0015.872,    0050.526
"FRM_AIS_EDR_1995.DAT           ",2005-08-04T08:36:03.84 ,"1/0071224558.44281",    0,   22,  158446,"AIS","B1","B1","B1","B1","PISd",0,0,0,1,"B1", 0,15,   0, 0,    0,"AIS","N/A    ","OK ","OK ",    000957.554,    -045.986,    -065.705,    0015.875,    0050.530
"FRM_AIS_EDR_1995.DAT           ",2005-08-04T08:36:11.38 ,"1/0071224566.14344",    0,   23,  158446,"AIS","B1","B1","B1","B1","PISd",0,0,0,1,"B1", 0,15,   0, 0,    0,"AIS","N/A    ","OK ","OK ",    000947.987,    -045.626,    -065.691,    0015.878,    0050.536
"FRM_AIS_EDR_1995.DAT           ",2005-08-04T08:36:18.92 ,"1/0071224573.49944",    0,   24,  158446,"AIS","B1","B1","B1","B1","PISd",0,0,0,1,"B1", 0,15,   0, 0,    0,"AIS","N/A    ","OK ","OK ",    000938.463,    -045.264,    -065.678,    0015.881,    0050.544
"FRM_AIS_EDR_1995.DAT           ",2005-08-04T08:36:26.47 ,"1/0071224581.20007",    0,   25,  158446,"AIS","B1","B1","B1","B1","PISd",0,0,0,1,"B1", 0,15,   0, 0,    0,"AIS","N/A    ","OK ","OK ",    000928.983,    -044.900,    -065.665,    0015.884,    0050.554
"FRM_AIS_EDR_1995.DAT           ",2005-08-04T08:36:34.01 ,"1/0071224588.55606",    0,   26,  158446,"AIS","B1","B1","B1","B1","PISd",0,0,0,1,"B1", 0,15,   0, 0,    0,"AIS","N/A    ","OK ","OK ",    000919.547,    -044.535,    -065.652,    0015.887,    0050.566
"FRM_AIS_EDR_1995.DAT           ",2005-08-04T08:36:41.55 ,"1/0071224596.25670",    0,   27,  158446,"AIS","B1","B1","B1","B1","PISd",0,0,0,1,"B1", 0,15,   0, 0,    0,"AIS","N/A    ","OK ","OK ",    000910.157,    -044.168,    -065.640,    0015.890,    0050.579
"FRM_AIS_EDR_1995.DAT           ",2005-08-04T08:36:49.09 ,"1/0071224603.61269",    0,   28,  158446,"AIS","B1","B1","B1","B1","PISd",0,0,0,1,"B1", 0,15,   0, 0,    0,"AIS","N/A    ","OK ","OK ",    000900.812,    -043.800,    -065.628,    0015.893,    0050.595
"FRM_AIS_EDR_1995.DAT           ",2005-08-04T08:36:56.64 ,"1/0071224611.31332",    0,   29,  158446,"AIS","B1","B1","B1","B1","PISd",0,0,0,1,"B1", 0,15,   0, 0,    0,"AIS","N/A    ","OK ","OK ",    000891.513,    -043.430,    -065.617,    0015.896,    0050.613
"FRM_AIS_EDR_1995.DAT           ",2005-08-04T08:37:04.18 ,"1/0071224619.01396",    0,   30,  158446,"AIS","B1","B1","B1","B1","PISd",0,0,0,1,"B1", 0,15,   0, 0,    0,"AIS","N/A    ","OK ","OK ",    000882.262,    -043.058,    -065.605,    0015.898,    0050.633
"FRM_AIS_EDR_1995.DAT           ",2005-08-04T08:37:11.72 ,"1/0071224626.36995",    0,   31,  158446,"AIS","B1","B1","B1","B1","PISd",0,0,0,1,"B1", 0,15,   0, 0,    0,"AIS","N/A    ","OK ","OK ",    000873.057,    -042.685,    -065.595,    0015.901,    0050.655
"FRM_AIS_EDR_1995.DAT           ",2005-08-04T08:37:19.27 ,"1/0071224634.07058",    0,   32,  158446,"AIS","B1","B1","B1","B1","PISd",0,0,0,1,"B1", 0,15,   0, 0,    0,"AIS","N/A    ","OK ","OK ",    000863.901,    -042.310,    -065.584,    0015.904,    0050.679
"FRM_AIS_EDR_1995.DAT           ",2005-08-04T08:37:26.81 ,"1/0071224641.42657",    0,   33,  158446,"AIS","B1","B1","B1","B1","PISd",0,0,0,1,"B1", 0,15,   0, 0,    0,"AIS","N/A    ","OK ","OK ",    000854.794,    -041.934,    -065.574,    0015.906,    0050.706
"FRM_AIS_EDR_1995.DAT           ",2005-08-04T08:37:34.35 ,"1/0071224649.12721",    0,   34,  158446,"AIS","B1","B1","B1","B1","PISd",0,0,0,1,"B1", 0,15,   0, 0,    0,"AIS","N/A    ","OK ","OK ",    000845.736,    -041.556,    -065.564,    0015.909,    0050.734
"FRM_AIS_EDR_1995.DAT           ",2005-08-04T08:37:41.90 ,"1/0071224656.48320",    0,   35,  158446,"AIS","B1","B1","B1","B1","PISd",0,0,0,1,"B1", 0,15,   0, 0,    0,"AIS","N/A    ","OK ","OK ",    000836.727,    -041.176,    -065.554,    0015.912,    0050.765
"FRM_AIS_EDR_1995.DAT           ",2005-08-04T08:37:49.44 ,"1/0071224664.18383",    0,   36,  158446,"AIS","B1","B1","B1","B1","PISd",0,0,0,1,"B1", 0,15,   0, 0,    0,"AIS","N/A    ","OK ","OK ",    000827.770,    -040.795,    -065.545,    0015.914,    0050.797
"FRM_AIS_EDR_1995.DAT           ",2005-08-04T08:37:56.98 ,"1/0071224671.53983",    0,   37,  158446,"AIS","B1","B1","B1","B1","PISd",0,0,0,1,"B1", 0,15,   0, 0,    0,"AIS","N/A    ","OK ","OK ",    000818.864,    -040.412,    -065.536,    0015.917,    0050.833
"FRM_AIS_EDR_1995.DAT           ",2005-08-04T08:38:04.53 ,"1/0071224679.24046",    0,   38,  158446,"AIS","B1","B1","B1","B1","PISd",0,0,0,1,"B1", 0,15,   0, 0,    0,"AIS","N/A    ","OK ","OK ",    000810.009,    -040.028,    -065.527,    0015.920,    0050.870
"FRM_AIS_EDR_1995.DAT           ",2005-08-04T08:38:12.07 ,"1/0071224686.59645",    0,   39,  158446,"AIS","B1","B1","B1","B1","PISd",0,0,0,1,"B1", 0,15,   0, 0,    0,"AIS","N/A    ","OK ","OK ",    000801.207,    -039.642,    -065.519,    0015.922,    0050.909
"FRM_AIS_EDR_1995.DAT           ",2005-08-04T08:38:19.61 ,"1/0071224694.29709",    0,   40,  158446,"AIS","B1","B1","B1","B1","PISd",0,0,0,1,"B1", 0,15,   0, 0,    0,"AIS","N/A    ","OK ","OK ",    000792.458,    -039.254,    -065.510,    0015.925,    0050.951
"FRM_AIS_EDR_1995.DAT           ",2005-08-04T08:38:27.16 ,"1/0071224701.65308",    0,   41,  158446,"AIS","B1","B1","B1","B1","PISd",0,0,0,1,"B1", 0,15,   0, 0,    0,"AIS","N/A    ","OK ","OK ",    000783.763,    -038.865,    -065.503,    0015.928,    0050.995
"FRM_AIS_EDR_1995.DAT           ",2005-08-04T08:38:34.70 ,"1/0071224709.35371",    0,   42,  158446,"AIS","B1","B1","B1","B1","PISd",0,0,0,1,"B1", 0,15,   0, 0,    0,"AIS","N/A    ","OK ","OK ",    000775.123,    -038.474,    -065.495,    0015.930,    0051.042
"FRM_AIS_EDR_1995.DAT           ",2005-08-04T08:38:42.24 ,"1/0071224717.05435",    0,   43,  158446,"AIS","B1","B1","B1","B1","PISd",0,0,0,1,"B1", 0,15,   0, 0,    0,"AIS","N/A    ","OK ","OK ",    000766.537,    -038.081,    -065.487,    0015.932,    0051.091
"FRM_AIS_EDR_1995.DAT           ",2005-08-04T08:38:49.79 ,"1/0071224724.41034",    0,   44,  158446,"AIS","B1","B1","B1","B1","PISd",0,0,0,1,"B1", 0,15,   0, 0,    0,"AIS","N/A    ","OK ","OK ",    000758.007,    -037.687,    -065.480,    0015.935,    0051.142
"FRM_AIS_EDR_1995.DAT           ",2005-08-04T08:38:57.33 ,"1/0071224732.11097",    0,   45,  158446,"AIS","B1","B1","B1","B1","PISd",0,0,0,1,"B1", 0,15,   0, 0,    0,"AIS","N/A    ","OK ","OK ",    000749.534,    -037.291,    -065.473,    0015.938,    0051.196
"FRM_AIS_EDR_1995.DAT           ",2005-08-04T08:39:04.87 ,"1/0071224739.46697",    0,   46,  158446,"AIS","B1","B1","B1","B1","PISd",0,0,0,1,"B1", 0,15,   0, 0,    0,"AIS","N/A    ","OK ","OK ",    000741.118,    -036.894,    -065.467,    0015.940,    0051.252
"FRM_AIS_EDR_1995.DAT           ",2005-08-04T08:39:12.42 ,"1/0071224747.16760",    0,   47,  158446,"AIS","B1","B1","B1","B1","PISd",0,0,0,1,"B1", 0,15,   0, 0,    0,"AIS","N/A    ","OK ","OK ",    000732.759,    -036.495,    -065.460,    0015.943,    0051.310
"FRM_AIS_EDR_1995.DAT           ",2005-08-04T08:39:19.96 ,"1/0071224754.52359",    0,   48,  158446,"AIS","B1","B1","B1","B1","PISd",0,0,0,1,"B1", 0,15,   0, 0,    0,"AIS","N/A    ","OK ","OK ",    000724.459,    -036.094,    -065.454,    0015.945,    0051.371
"FRM_AIS_EDR_1995.DAT           ",2005-08-04T08:39:27.50 ,"1/0071224762.22423",    0,   49,  158446,"AIS","B1","B1","B1","B1","PISd",0,0,0,1,"B1", 0,15,   0, 0,    0,"AIS","N/A    ","OK ","OK ",    000716.218,    -035.692,    -065.448,    0015.947,    0051.435
"FRM_AIS_EDR_1995.DAT           ",2005-08-04T08:39:35.05 ,"1/0071224769.58022",    0,   50,  158446,"AIS","B1","B1","B1","B1","PISd",0,0,0,1,"B1", 0,15,   0, 0,    0,"AIS","N/A    ","OK ","OK ",    000708.036,    -035.288,    -065.443,    0015.950,    0051.501
"FRM_AIS_EDR_1995.DAT           ",2005-08-04T08:39:42.59 ,"1/0071224777.28085",    0,   51,  158446,"AIS","B1","B1","B1","B1","PISd",0,0,0,1,"B1", 0,15,   0, 0,    0,"AIS","N/A    ","OK ","OK ",    000699.915,    -034.883,    -065.437,    0015.952,    0051.569
"FRM_AIS_EDR_1995.DAT           ",2005-08-04T08:39:50.13 ,"1/0071224784.63685",    0,   52,  158446,"AIS","B1","B1","B1","B1","PISd",0,0,0,1,"B1", 0,15,   0, 0,    0,"AIS","N/A    ","OK ","OK ",    000691.855,    -034.476,    -065.432,    0015.955,    0051.640
"FRM_AIS_EDR_1995.DAT           ",2005-08-04T08:39:57.67 ,"1/0071224792.33748",    0,   53,  158446,"AIS","B1","B1","B1","B1","PISd",0,0,0,1,"B1", 0,15,   0, 0,    0,"AIS","N/A    ","OK ","OK ",    000683.857,    -034.067,    -065.427,    0015.957,    0051.714
"FRM_AIS_EDR_1995.DAT           ",2005-08-04T08:40:05.22 ,"1/0071224800.03811",    0,   54,  158446,"AIS","B1","B1","B1","B1","PISd",0,0,0,1,"B1", 0,15,   0, 0,    0,"AIS","N/A    ","OK ","OK ",    000675.921,    -033.657,    -065.422,    0015.959,    0051.790
"FRM_AIS_EDR_1995.DAT           ",2005-08-04T08:40:12.76 ,"1/0071224807.39411",    0,   55,  158446,"AIS","B1","B1","B1","B1","PISd",0,0,0,1,"B1", 0,15,   0, 0,    0,"AIS","N/A    ","OK ","OK ",    000668.048,    -033.245,    -065.417,    0015.962,    0051.869
"FRM_AIS_EDR_1995.DAT           ",2005-08-04T08:40:20.30 ,"1/0071224815.09474",    0,   56,  158446,"AIS","B1","B1","B1","B1","PISd",0,0,0,1,"B1", 0,15,   0, 0,    0,"AIS","N/A    ","OK ","OK ",    000660.239,    -032.832,    -065.413,    0015.964,    0051.950
"FRM_AIS_EDR_1995.DAT           ",2005-08-04T08:40:27.85 ,"1/0071224822.45073",    0,   57,  158446,"AIS","B1","B1","B1","B1","PISd",0,0,0,1,"B1", 0,15,   0, 0,    0,"AIS","N/A    ","OK ","OK ",    000652.495,    -032.417,    -065.409,    0015.966,    0052.034
"FRM_AIS_EDR_1995.DAT           ",2005-08-04T08:40:35.39 ,"1/0071224830.15137",    0,   58,  158446,"AIS","B1","B1","B1","B1","PISd",0,0,0,1,"B1", 0,15,   0, 0,    0,"AIS","N/A    ","OK ","OK ",    000644.815,    -032.001,    -065.404,    0015.969,    0052.120
"FRM_AIS_EDR_1995.DAT           ",2005-08-04T08:40:42.93 ,"1/0071224837.50736",    0,   59,  158446,"AIS","B1","B1","B1","B1","PISd",0,0,0,1,"B1", 0,15,   0, 0,    0,"AIS","N/A    ","OK ","OK ",    000637.202,    -031.583,    -065.401,    0015.971,    0052.209
"FRM_AIS_EDR_1995.DAT           ",2005-08-04T08:40:50.48 ,"1/0071224845.20799",    0,   60,  158446,"AIS","B1","B1","B1","B1","PISd",0,0,0,1,"B1", 0,15,   0, 0,    0,"AIS","N/A    ","OK ","OK ",    000629.655,    -031.163,    -065.397,    0015.973,    0052.301
"FRM_AIS_EDR_1995.DAT           ",2005-08-04T08:40:58.02 ,"1/0071224852.56399",    0,   61,  158446,"AIS","B1","B1","B1","B1","PISd",0,0,0,1,"B1", 0,15,   0, 0,    0,"AIS","N/A    ","OK ","OK ",    000622.175,    -030.742,    -065.393,    0015.976,    0052.396
"FRM_AIS_EDR_1995.DAT           ",2005-08-04T08:41:05.56 ,"1/0071224860.26462",    0,   62,  158446,"AIS","B1","B1","B1","B1","PISd",0,0,0,1,"B1", 0,15,   0, 0,    0,"AIS","N/A    ","OK ","OK ",    000614.763,    -030.319,    -065.390,    0015.978,    0052.493
"FRM_AIS_EDR_1995.DAT           ",2005-08-04T08:41:13.11 ,"1/0071224867.62061",    0,   63,  158446,"AIS","B1","B1","B1","B1","PISd",0,0,0,1,"B1", 0,15,   0, 0,    0,"AIS","N/A    ","OK ","OK ",    000607.419,    -029.895,    -065.387,    0015.980,    0052.592
"FRM_AIS_EDR_1995.DAT           ",2005-08-04T08:41:20.65 ,"1/0071224875.32124",    0,   64,  158446,"AIS","B1","B1","B1","B1","PISd",0,0,0,1,"B1", 0,15,   0, 0,    0,"AIS","N/A    ","OK ","OK ",    000600.145,    -029.469,    -065.384,    0015.982,    0052.695
"FRM_AIS_EDR_1995.DAT           ",2005-08-04T08:41:28.19 ,"1/0071224883.02188",    0,   65,  158446,"AIS","B1","B1","B1","B1","PISd",0,0,0,1,"B1", 0,15,   0, 0,    0,"AIS","N/A    ","OK ","OK ",    000592.940,    -029.042,    -065.381,    0015.984,    0052.800
"FRM_AIS_EDR_1995.DAT           ",2005-08-04T08:41:35.74 ,"1/0071224890.37787",    0,   66,  158446,"AIS","B1","B1","B1","B1","PISd",0,0,0,1,"B1", 0,15,   0, 0,    0,"AIS","N/A    ","OK ","OK ",    000585.806,    -028.613,    -065.378,    0015.987,    0052.908
"FRM_AIS_EDR_1995.DAT           ",2005-08-04T08:41:43.28 ,"1/0071224898.07850",    0,   67,  158446,"AIS","B1","B1","B1","B1","PISd",0,0,0,1,"B1", 0,15,   0, 0,    0,"AIS","N/A    ","OK ","OK ",    000578.744,    -028.183,    -065.376,    0015.989,    0053.019
"FRM_AIS_EDR_1995.DAT           ",2005-08-04T08:41:50.82 ,"1/0071224905.43450",    0,   68,  158446,"AIS","B1","B1","B1","B1","PISd",0,0,0,1,"B1", 0,15,   0, 0,    0,"AIS","N/A    ","OK ","OK ",    000571.753,    -027.751,    -065.373,    0015.991,    0053.132
"FRM_AIS_EDR_1995.DAT           ",2005-08-04T08:41:58.37 ,"1/0071224913.13513",    0,   69,  158446,"AIS","B1","B1","B1","B1","PISd",0,0,0,1,"B1", 0,15,   0, 0,    0,"AIS","N/A    ","OK ","OK ",    000564.835,    -027.317,    -065.371,    0015.993,    0053.248
"FRM_AIS_EDR_1995.DAT           ",2005-08-04T08:42:05.91 ,"1/0071224920.49112",    0,   70,  158446,"AIS","B1","B1","B1","B1","PISd",0,0,0,1,"B1", 0,15,   0, 0,    0,"AIS","N/A    ","OK ","OK ",    000557.990,    -026.883,    -065.369,    0015.996,    0053.367
"FRM_AIS_EDR_1995.DAT           ",2005-08-04T08:42:13.45 ,"1/0071224928.19176",    0,   71,  158446,"AIS","B1","B1","B1","B1","PISd",0,0,0,1,"B1", 0,15,   0, 0,    0,"AIS","N/A    ","OK ","OK ",    000551.219,    -026.446,    -065.367,    0015.998,    0053.489
"FRM_AIS_EDR_1995.DAT           ",2005-08-04T08:42:21.00 ,"1/0071224935.54775",    0,   72,  158446,"AIS","B1","B1","B1","B1","PISd",0,0,0,1,"B1", 0,15,   0, 0,    0,"AIS","N/A    ","OK ","OK ",    000544.523,    -026.008,    -065.365,    0016.000,    0053.613
"FRM_AIS_EDR_1995.DAT           ",2005-08-04T08:42:28.54 ,"1/0071224943.24838",    0,   73,  158446,"AIS","B1","B1","B1","B1","PISd",0,0,0,1,"B1", 0,15,   0, 0,    0,"AIS","N/A    ","OK ","OK ",    000537.903,    -025.569,    -065.364,    0016.002,    0053.740
"FRM_AIS_EDR_1995.DAT           ",2005-08-04T08:42:36.08 ,"1/0071224950.60438",    0,   74,  158446,"AIS","B1","B1","B1","B1","PISd",0,0,0,1,"B1", 0,15,   0, 0,    0,"AIS","N/A    ","OK ","OK ",    000531.358,    -025.128,    -065.362,    0016.004,    0053.870
"FRM_AIS_EDR_1995.DAT           ",2005-08-04T08:42:43.63 ,"1/0071224958.30501",    0,   75,  158446,"AIS","B1","B1","B1","B1","PISd",0,0,0,1,"B1", 0,15,   0, 0,    0,"AIS","N/A    ","OK ","OK ",    000524.890,    -024.686,    -065.361,    0016.006,    0054.002
"FRM_AIS_EDR_1995.DAT           ",2005-08-04T08:42:51.17 ,"1/0071224966.00564",    0,   76,  158446,"AIS","B1","B1","B1","B1","PISd",0,0,0,1,"B1", 0,15,   0, 0,    0,"AIS","N/A    ","OK ","OK ",    000518.499,    -024.242,    -065.360,    0016.008,    0054.138
"FRM_AIS_EDR_1995.DAT           ",2005-08-04T08:42:58.71 ,"1/0071224973.36164",    0,   77,  158446,"AIS","B1","B1","B1","B1","PISd",0,0,0,1,"B1", 0,15,   0, 0,    0,"AIS","N/A    ","OK ","OK ",    000512.187,    -023.797,    -065.358,    0016.011,    0054.276
"FRM_AIS_EDR_1995.DAT           ",2005-08-04T08:43:06.25 ,"1/0071224981.06227",    0,   78,  158446,"AIS","B1","B1","B1","B1","PISd",0,0,0,1,"B1", 0,15,   0, 0,    0,"AIS","N/A    ","OK ","OK ",    000505.953,    -023.351,    -065.357,    0016.012,    0054.417
"FRM_AIS_EDR_1995.DAT           ",2005-08-04T08:43:13.80 ,"1/0071224988.41826",    0,   79,  158446,"AIS","B1","B1","B1","B1","PISd",0,0,0,1,"B1", 0,15,   0, 0,    0,"AIS","N/A    ","OK ","OK ",    000499.798,    -022.903,    -065.356,    0016.015,    0054.560
"FRM_AIS_EDR_1995.DAT           ",2005-08-04T08:43:21.34 ,"1/0071224996.11890",    0,   80,  158446,"AIS","B1","B1","B1","B1","PISd",0,0,0,1,"B1", 0,15,   0, 0,    0,"AIS","N/A    ","OK ","OK ",    000493.723,    -022.454,    -065.356,    0016.017,    0054.707
"FRM_AIS_EDR_1995.DAT           ",2005-08-04T08:43:28.88 ,"1/0071225003.47489",    0,   81,  158446,"AIS","B1","B1","B1","B1","PISd",0,0,0,1,"B1", 0,15,   0, 0,    0,"AIS","N/A    ","OK ","OK ",    000487.729,    -022.003,    -065.355,    0016.019,    0054.856
"FRM_AIS_EDR_1995.DAT           ",2005-08-04T08:43:36.43 ,"1/0071225011.17552",    0,   82,  158446,"AIS","B1","B1","B1","B1","PISd",0,0,0,1,"B1", 0,15,   0, 0,    0,"AIS","N/A    ","OK ","OK ",    000481.817,    -021.551,    -065.354,    0016.021,    0055.008
"FRM_AIS_EDR_1995.DAT           ",2005-08-04T08:43:43.97 ,"1/0071225018.53152",    0,   83,  158446,"AIS","B1","B1","B1","B1","PISd",0,0,0,1,"B1", 0,15,   0, 0,    0,"AIS","N/A    ","OK ","OK ",    000475.986,    -021.098,    -065.354,    0016.023,    0055.162
"FRM_AIS_EDR_1995.DAT           ",2005-08-04T08:43:51.51 ,"1/0071225026.23215",    0,   84,  158446,"AIS","B1","B1","B1","B1","PISd",0,0,0,1,"B1", 0,15,   0, 0,    0,"AIS","N/A    ","OK ","OK ",    000470.238,    -020.643,    -065.353,    0016.025,    0055.320
"FRM_AIS_EDR_1995.DAT           ",2005-08-04T08:43:59.06 ,"1/0071225033.58814",    0,   85,  158446,"AIS","B1","B1","B1","B1","PISd",0,0,0,1,"B1", 0,15,   0, 0,    0,"AIS","N/A    ","OK ","OK ",    000464.573,    -020.187,    -065.353,    0016.027,    0055.480
"FRM_AIS_EDR_1995.DAT           ",2005-08-04T08:44:06.60 ,"1/0071225041.28878",    0,   86,  158446,"AIS","B1","B1","B1","B1","PISd",0,0,0,1,"B1", 0,15,   0, 0,    0,"AIS","N/A    ","OK ","OK ",    000458.992,    -019.729,    -065.353,    0016.029,    0055.643
"FRM_AIS_EDR_1995.DAT           ",2005-08-04T08:44:14.14 ,"1/0071225048.64477",    0,   87,  158446,"AIS","B1","B1","B1","B1","PISd",0,0,0,1,"B1", 0,15,   0, 0,    0,"AIS","N/A    ","OK ","OK ",    000453.496,    -019.271,    -065.353,    0016.031,    0055.808
"FRM_AIS_EDR_1995.DAT           ",2005-08-04T08:44:21.69 ,"1/0071225056.34540",    0,   88,  158446,"AIS","B1","B1","B1","B1","PISd",0,0,0,1,"B1", 0,15,   0, 0,    0,"AIS","N/A    ","OK ","OK ",    000448.084,    -018.811,    -065.353,    0016.033,    0055.977
"FRM_AIS_EDR_1995.DAT           ",2005-08-04T08:44:29.23 ,"1/0071225064.04604",    0,   89,  158446,"AIS","B1","B1","B1","B1","PISd",0,0,0,1,"B1", 0,15,   0, 0,    0,"AIS","N/A    ","OK ","OK ",    000442.759,    -018.349,    -065.353,    0016.035,    0056.148
"FRM_AIS_EDR_1995.DAT           ",2005-08-04T08:44:36.77 ,"1/0071225071.40203",    0,   90,  158446,"AIS","B1","B1","B1","B1","PISd",0,0,0,1,"B1", 0,15,   0, 0,    0,"AIS","N/A    ","OK ","OK ",    000437.519,    -017.887,    -065.353,    0016.038,    0056.321